Regional Weather Roundup
Issued by NWS

Home | Current Version | Previous Version | Graphics & Text | Print | Product List | Glossary On
Versions: 1 2 3 4 5 6 7 8 9 10 11 12 13 14 15 16 17 18 19 20 21 22 23 24 25 26 27 28 29 30 31 32 33 34 35 36 37 38 39 40 41 42 43 44 45 46 47 48 49 50
000
ASUS43 KBIS 291010
RWRND

NORTH DAKOTA REGIONAL WEATHER ROUNDUP
NATIONAL WEATHER SERVICE BISMARCK ND
500 AM CDT FRI MAY 29 2015

NOTE: "FAIR" INDICATES FEW OR NO CLOUDS BELOW 12,000 FEET WITH NO
SIGNIFICANT WEATHER AND/OR OBSTRUCTIONS TO VISIBILITY.


NDZ001>003-009>011-017-291100-
NORTHWEST NORTH DAKOTA

CITY           SKY/WX    TMP DP  RH WIND       PRES   REMARKS
WILLISTON      CLOUDY    45  34  65 N14       30.23S
MINOT          CLOUDY    47  38  71 N21G26    30.14R
MINOT AFB      CLOUDY    47  47  99 N16G22    30.14R
$$

NDZ018>021-031>035-040>046-291100-
SOUTHWEST NORTH DAKOTA

CITY           SKY/WX    TMP DP  RH WIND       PRES   REMARKS
BISMARCK       CLOUDY    52  47  83 N16G22    30.08R
DICKINSON      CLOUDY    46  43  89 N17G25    30.14R
GARRISON         N/A     48  41  76 N16G24    30.12R
HETTINGER ARPT CLOUDY    47  44  90 N18G29    30.11R
$$

NDZ004>008-012>016-024-026-027-054-291100-
NORTHEAST NORTH DAKOTA

CITY           SKY/WX    TMP DP  RH WIND       PRES   REMARKS
GRAND FORKS    CLOUDY    49  45  86 N24G38    29.97R
GRND FRKS AFB  CLOUDY    48  44  84 N24G32    29.99R
DEVILS LAKE    CLOUDY    48  37  66 N25G31    30.04R
$$

NDZ022-023-025-028>030-036>039-047>053-291100-
SOUTHEAST NORTH DAKOTA

CITY           SKY/WX    TMP DP  RH WIND       PRES   REMARKS
FARGO          CLOUDY    55  52  89 N26G35    29.90R
JAMESTOWN      CLOUDY    53  49  86 N25       29.97R
$$



USA.gov is the U.S. government's official web portal to all federal, state and local government web resources and services.